{"data":{"norad_id":68403,"intl_designator":"2026-063Z","name":"STARLINK-37218","alt_names":[],"object_type":"PAYLOAD","status":"ACTIVE","operator":null,"country":"US","launch_date":"2026-03-26","launch_site_code":"AFWTR","launch_vehicle":null,"mission":null,"orbit_class":"UNKNOWN","rcs_meters":null,"size_class":null,"mass_kg":null,"dimensions":null,"purposes":["comms"],"wikipedia_slug":null,"has_3d_model":false,"image_url":null,"decayed_at":null,"tle_current":{"epoch":"2026-09-20T03:25:53.040864Z","epoch_age_seconds":78080,"freshness":"FRESH","line1":"1 68403U 26063Z   26263.14297501  .00017124  00000+0  53129-3 0  9993","line2":"2 68403  97.2857  47.0505 0000253 227.0216 133.1006 15.33459879 27896","mean_motion":15.33459879,"eccentricity":2.53e-5,"inclination_deg":97.2857,"raan_deg":47.0505,"arg_perigee_deg":227.0216,"mean_anomaly_deg":133.1006,"bstar":0.00053129,"rev_number":2789,"period_min":93.905293494803,"perigee_km":465.32576141194,"apogee_km":465.67204938876,"semimajor_km":6843.6359054004,"source":"CELESTRAK","updated_at":"2026-09-20T09:00:43.899489Z"}}}